When you browse on this site, cookies collect data to enhance your experience and personalize the content and advertising you see.
Visit our Privacy Policy to learn more. By continuing to use the site, you agree to this use of cookies and data.
  • In Austria
  • List of Countries
  • For 7 days
  • Water Temperature
  • Satellite Maps
  • Weather Map
  • News
  • Weather Widgets
  • user-avatar
    Login

    Hourly Weather State College

    Today, 17 July, Wednesday

    Time Temperature Precipitation Wind Pressure Humidity
    00:00 +22°C° 0 mm 1 mps 732 mmHg 94%
    01:00 +22°C° 0 mm 1 mps 732 mmHg 95%
    02:00 +22°C° 0.1 mm 1 mps 731 mmHg 96%
    03:00 +21°C° 0.1 mm 1 mps 731 mmHg 96%
    04:00 +21°C° 0.1 mm 1 mps 731 mmHg 97%
    05:00 +22°C° 0.2 mm 1 mps 731 mmHg 96%
    06:00 +22°C° 0.2 mm 1 mps 731 mmHg 96%
    07:00 +23°C° 0.2 mm 1 mps 731 mmHg 95%
    08:00 +25°C° 0.1 mm 1 mps 731 mmHg 87%
    09:00 +27°C° 0.1 mm 2 mps 731 mmHg 78%
    10:00 +29°C° 0.1 mm 3 mps 731 mmHg 69%
    11:00 +28°C° 0.7 mm 2 mps 730 mmHg 77%
    12:00 +27°C° 0.7 mm 2 mps 730 mmHg 84%
    13:00 +26°C° 0.7 mm 2 mps 729 mmHg 92%
    14:00 +26°C° 0.8 mm 2 mps 729 mmHg 93%
    15:00 +26°C° 0.8 mm 2 mps 729 mmHg 93%
    16:00 +26°C° 0.8 mm 2 mps 728 mmHg 94%
    17:00 +26°C° 1.9 mm 2 mps 728 mmHg 94%
    18:00 +25°C° 1.9 mm 2 mps 728 mmHg 94%
    19:00 +25°C° 1.9 mm 2 mps 728 mmHg 95%
    20:00 +24°C° 0.6 mm 1 mps 728 mmHg 95%
    21:00 +24°C° 0.6 mm 1 mps 728 mmHg 96%
    22:00 +21°C° 0.6 mm 0 mps 729 mmHg 96%
    23:00 +22°C° 0 mm 1 mps 729 mmHg 97%

    Tomorrow, 18 July, Thursday

    Time Temperature Precipitation Wind Pressure Humidity
    00:00 +22°C° 0 mm 1 mps 729 mmHg 97%
    01:00 +21°C° 0 mm 1 mps 729 mmHg 97%
    02:00 +21°C° 0 mm 1 mps 729 mmHg 97%
    03:00 +20°C° 0 mm 1 mps 729 mmHg 97%
    04:00 +19°C° 0 mm 1 mps 729 mmHg 97%
    05:00 +20°C° 0 mm 1 mps 729 mmHg 97%
    06:00 +19°C° 0 mm 0 mps 729 mmHg 96%
    07:00 +19°C° 0 mm 0 mps 730 mmHg 96%
    08:00 +22°C° 0 mm 0 mps 730 mmHg 87%
    09:00 +26°C° 0 mm 1 mps 730 mmHg 79%
    10:00 +28°C° 0 mm 1 mps 730 mmHg 70%
    11:00 +30°C° 0 mm 1 mps 730 mmHg 64%
    12:00 +31°C° 0 mm 1 mps 730 mmHg 59%
    13:00 +33°C° 0 mm 1 mps 730 mmHg 53%
    14:00 +33°C° 0 mm 1 mps 730 mmHg 52%
    15:00 +33°C° 0 mm 1 mps 730 mmHg 51%
    16:00 +33°C° 0 mm 1 mps 730 mmHg 50%
    17:00 +31°C° 0 mm 1 mps 730 mmHg 60%
    18:00 +29°C° 0 mm 1 mps 730 mmHg 70%
    19:00 +27°C° 0 mm 1 mps 730 mmHg 80%
    20:00 +26°C° 0 mm 1 mps 730 mmHg 84%
    21:00 +23°C° 0 mm 0 mps 730 mmHg 89%
    22:00 +21°C° 0 mm 0 mps 730 mmHg 94%
    23:00 +21°C° 0 mm 0 mps 730 mmHg 94%

    Day after tomorrow, 19 July, Friday

    Time Temperature Precipitation Wind Pressure Humidity
    00:00 +21°C° 0 mm 0 mps 730 mmHg 95%
    01:00 +20°C° 0 mm 0 mps 730 mmHg 96%
    02:00 +20°C° 0 mm 0 mps 730 mmHg 96%
    03:00 +20°C° 0 mm 0 mps 730 mmHg 96%
    04:00 +20°C° 0 mm 0 mps 731 mmHg 97%
    05:00 +23°C° 0 mm 1 mps 731 mmHg 95%
    06:00 +24°C° 0 mm 1 mps 731 mmHg 93%
    07:00 +25°C° 0 mm 1 mps 731 mmHg 91%
    08:00 +27°C° 0 mm 1 mps 732 mmHg 81%
    09:00 +29°C° 0 mm 2 mps 732 mmHg 71%
    10:00 +32°C° 0 mm 2 mps 732 mmHg 61%
    11:00 +34°C° 0 mm 2 mps 732 mmHg 57%
    12:00 +35°C° 0 mm 3 mps 731 mmHg 53%
    13:00 +37°C° 0 mm 3 mps 731 mmHg 48%
    14:00 +37°C° 0 mm 3 mps 731 mmHg 49%
    15:00 +37°C° 0 mm 3 mps 731 mmHg 50%
    16:00 +37°C° 0 mm 3 mps 730 mmHg 51%
    17:00 +35°C° 0 mm 3 mps 730 mmHg 60%
    18:00 +32°C° 0 mm 2 mps 730 mmHg 69%
    19:00 +30°C° 0 mm 2 mps 730 mmHg 78%
    20:00 +29°C° 0 mm 2 mps 730 mmHg 82%
    21:00 +28°C° 0 mm 1 mps 730 mmHg 86%
    22:00 +26°C° 0 mm 1 mps 730 mmHg 90%
    23:00 +26°C° 0 mm 1 mps 730 mmHg 91%

    20 July, Saturday

    Time Temperature Precipitation Wind Pressure Humidity
    00:00 +25°C° 0 mm 1 mps 730 mmHg 93%
    01:00 +25°C° 0 mm 1 mps 730 mmHg 95%
    02:00 +25°C° 0 mm 1 mps 730 mmHg 95%
    03:00 +25°C° 0 mm 1 mps 730 mmHg 96%
    04:00 +24°C° 0 mm 1 mps 730 mmHg 96%
    05:00 +25°C° 0 mm 1 mps 730 mmHg 93%
    06:00 +26°C° 0 mm 1 mps 730 mmHg 90%
    07:00 +27°C° 0 mm 1 mps 730 mmHg 87%
    08:00 +29°C° 0 mm 2 mps 730 mmHg 79%
    09:00 +31°C° 0 mm 3 mps 731 mmHg 71%
    10:00 +34°C° 0 mm 3 mps 731 mmHg 63%
    11:00 +35°C° 0 mm 3 mps 730 mmHg 58%
    12:00 +36°C° 0 mm 4 mps 730 mmHg 53%
    13:00 +37°C° 0 mm 4 mps 730 mmHg 49%
    14:00 +37°C° 0 mm 4 mps 729 mmHg 49%
    15:00 +37°C° 0 mm 4 mps 729 mmHg 49%
    16:00 +37°C° 0 mm 4 mps 729 mmHg 49%
    17:00 +35°C° 0.1 mm 3 mps 728 mmHg 59%
    18:00 +31°C° 0.1 mm 3 mps 728 mmHg 68%
    19:00 +29°C° 0.1 mm 2 mps 728 mmHg 78%
    20:00 +28°C° 0 mm 2 mps 729 mmHg 81%
    21:00 +27°C° 0 mm 2 mps 729 mmHg 83%
    22:00 +26°C° 0 mm 1 mps 729 mmHg 86%
    23:00 +26°C° 0 mm 1 mps 729 mmHg 88%

    21 July, Sunday

    Time Temperature Precipitation Wind Pressure Humidity
    00:00 +25°C° 0 mm 1 mps 729 mmHg 91%
    01:00 +25°C° 0 mm 1 mps 729 mmHg 93%
    02:00 +24°C° 0 mm 1 mps 728 mmHg 94%
    03:00 +24°C° 0 mm 1 mps 728 mmHg 95%
    04:00 +22°C° 0 mm 0 mps 728 mmHg 96%
    05:00 +22°C° 0 mm 0 mps 729 mmHg 93%
    06:00 +23°C° 0 mm 0 mps 729 mmHg 91%
    07:00 +24°C° 0 mm 0 mps 729 mmHg 88%
    08:00 +28°C° 0 mm 1 mps 730 mmHg 78%
    09:00 +30°C° 0 mm 1 mps 730 mmHg 69%
    10:00 +32°C° 0 mm 2 mps 730 mmHg 59%
    11:00 +32°C° 0.3 mm 1 mps 730 mmHg 59%
    12:00 +33°C° 0.3 mm 1 mps 729 mmHg 59%
    13:00 +34°C° 0.3 mm 1 mps 729 mmHg 59%
    14:00 +33°C° 1.7 mm 1 mps 728 mmHg 68%
    15:00 +31°C° 1.7 mm 2 mps 728 mmHg 77%
    16:00 +30°C° 1.7 mm 2 mps 727 mmHg 86%
    17:00 +29°C° 0.9 mm 2 mps 727 mmHg 88%
    18:00 +28°C° 0.9 mm 2 mps 727 mmHg 90%
    19:00 +27°C° 0.9 mm 2 mps 726 mmHg 92%
    20:00 +26°C° 0 mm 2 mps 726 mmHg 92%
    21:00 +26°C° 0 mm 2 mps 726 mmHg 93%
    22:00 +25°C° 0 mm 2 mps 726 mmHg 94%
    23:00 +25°C° 0.3 mm 2 mps 726 mmHg 95%

    22 July, Monday

    Time Temperature Precipitation Wind Pressure Humidity
    00:00 +24°C° 0.3 mm 2 mps 726 mmHg 96%
    01:00 +24°C° 0.3 mm 2 mps 725 mmHg 97%
    02:00 +24°C° 0 mm 2 mps 725 mmHg 97%
    03:00 +24°C° 0 mm 1 mps 725 mmHg 97%
    04:00 +24°C° 0 mm 1 mps 725 mmHg 97%
    05:00 +24°C° 0.3 mm 2 mps 725 mmHg 97%
    06:00 +24°C° 0.3 mm 2 mps 725 mmHg 96%
    07:00 +24°C° 0.3 mm 2 mps 725 mmHg 96%
    08:00 +25°C° 0.4 mm 2 mps 725 mmHg 95%
    09:00 +25°C° 0.4 mm 3 mps 725 mmHg 94%
    10:00 +26°C° 0.4 mm 3 mps 726 mmHg 94%
    11:00 +26°C° 1.5 mm 3 mps 726 mmHg 93%
    12:00 +26°C° 1.5 mm 3 mps 726 mmHg 93%
    13:00 +27°C° 1.5 mm 3 mps 726 mmHg 92%
    14:00 +26°C° 0.7 mm 3 mps 726 mmHg 92%
    15:00 +23°C° 0.7 mm 4 mps 726 mmHg 92%
    16:00 +22°C° 0.7 mm 4 mps 726 mmHg 93%
    17:00 +21°C° 0 mm 4 mps 726 mmHg 89%
    18:00 +20°C° 0 mm 4 mps 726 mmHg 86%
    19:00 +19°C° 0 mm 4 mps 727 mmHg 83%
    20:00 +18°C° 0 mm 3 mps 727 mmHg 84%
    21:00 +17°C° 0 mm 3 mps 728 mmHg 84%
    22:00 +16°C° 0 mm 3 mps 728 mmHg 84%
    23:00 +16°C° 0 mm 3 mps 728 mmHg 84%
    Show more